Location: Newark
(51.7378°N, 19.8125°E)
Time: 01:31:03
(UTC+00:00)

Envisat - Pass Details

Date: 13 December 2019
Orbit: 764 x 766 km, 98.1° (Epoch: 23 January)

Event Time Altitude Azimuth Distance (km) Brightness Sun altitude
Rises 04:26:20 0° 24° (NNE) 3,247 6.4 -19.2°
Reaches altitude 10° 04:29:10 10° 39° (NE) 2,315 5.8 -18.8°
Maximum altitude 04:33:06 22° 90° (E) 1,629 5.6 -18.2°
Drops below altitude 10° 04:37:00 10° 141° (SE) 2,300 6.3 -17.6°
Sets 04:39:48 0° 156° (SSE) 3,221 6.8 -17.2°
